#datetime,building,power
2022-08-10T00:00:00,sdl,6.72
2022-08-10T00:01:00,sdl,6.80
2022-08-10T00:02:00,sdl,6.77
2022-08-10T00:03:00,sdl,6.76
2022-08-10T00:04:00,sdl,6.70
2022-08-10T00:05:00,sdl,4.51
2022-08-10T00:06:00,sdl,4.47
2022-08-10T00:07:00,sdl,5.84
2022-08-10T00:08:00,sdl,6.10
2022-08-10T00:09:00,sdl,6.15
2022-08-10T00:10:00,sdl,6.31
2022-08-10T00:11:00,sdl,6.29
2022-08-10T00:12:00,sdl,6.31
2022-08-10T00:13:00,sdl,6.30
2022-08-10T00:14:00,sdl,4.42
2022-08-10T00:15:00,sdl,4.30
2022-08-10T00:16:00,sdl,4.29
2022-08-10T00:17:00,sdl,3.98
2022-08-10T00:18:00,sdl,4.00
2022-08-10T00:19:00,sdl,4.10
2022-08-10T00:20:00,sdl,4.49
2022-08-10T00:21:00,sdl,4.44
2022-08-10T00:22:00,sdl,6.31
2022-08-10T00:23:00,sdl,6.18
2022-08-10T00:24:00,sdl,6.01
2022-08-10T00:25:00,sdl,7.42
2022-08-10T00:26:00,sdl,7.62
2022-08-10T00:27:00,sdl,7.82
2022-08-10T00:28:00,sdl,7.85
2022-08-10T00:29:00,sdl,7.84
2022-08-10T00:30:00,sdl,7.78
2022-08-10T00:31:00,sdl,7.90
2022-08-10T00:32:00,sdl,6.33
2022-08-10T00:33:00,sdl,6.33
2022-08-10T00:34:00,sdl,4.08
2022-08-10T00:35:00,sdl,4.15
2022-08-10T00:36:00,sdl,4.12
2022-08-10T00:37:00,sdl,4.20
2022-08-10T00:38:00,sdl,4.15
2022-08-10T00:39:00,sdl,4.26
2022-08-10T00:40:00,sdl,4.25
2022-08-10T00:41:00,sdl,4.24
2022-08-10T00:42:00,sdl,4.26
2022-08-10T00:43:00,sdl,5.65
2022-08-10T00:44:00,sdl,5.91
2022-08-10T00:45:00,sdl,6.01
2022-08-10T00:46:00,sdl,6.07
2022-08-10T00:47:00,sdl,6.14
2022-08-10T00:48:00,sdl,6.13
2022-08-10T00:49:00,sdl,6.15
2022-08-10T00:50:00,sdl,4.12
2022-08-10T00:51:00,sdl,4.12
2022-08-10T00:52:00,sdl,4.01
2022-08-10T00:53:00,sdl,4.10
2022-08-10T00:54:00,sdl,4.43
2022-08-10T00:55:00,sdl,4.54
2022-08-10T00:56:00,sdl,4.58
2022-08-10T00:57:00,sdl,4.23
2022-08-10T00:58:00,sdl,4.40
2022-08-10T00:59:00,sdl,4.49
2022-08-10T01:00:00,sdl,4.45
2022-08-10T01:01:00,sdl,5.89
2022-08-10T01:02:00,sdl,6.36
2022-08-10T01:03:00,sdl,6.15
2022-08-10T01:04:00,sdl,6.25
2022-08-10T01:05:00,sdl,6.35
2022-08-10T01:06:00,sdl,6.40
2022-08-10T01:07:00,sdl,5.12
2022-08-10T01:08:00,sdl,4.45
2022-08-10T01:09:00,sdl,6.65
2022-08-10T01:10:00,sdl,6.64
2022-08-10T01:11:00,sdl,6.64
2022-08-10T01:12:00,sdl,6.76
2022-08-10T01:13:00,sdl,6.80
2022-08-10T01:14:00,sdl,6.85
2022-08-10T01:15:00,sdl,6.81
2022-08-10T01:16:00,sdl,6.78
2022-08-10T01:17:00,sdl,6.95
2022-08-10T01:18:00,sdl,8.34
2022-08-10T01:19:00,sdl,8.62
2022-08-10T01:20:00,sdl,8.69
2022-08-10T01:21:00,sdl,8.73
2022-08-10T01:22:00,sdl,8.83
2022-08-10T01:23:00,sdl,8.75
2022-08-10T01:24:00,sdl,7.37
2022-08-10T01:25:00,sdl,4.46
2022-08-10T01:26:00,sdl,4.32
2022-08-10T01:27:00,sdl,4.41
2022-08-10T01:28:00,sdl,4.44
2022-08-10T01:29:00,sdl,5.00
2022-08-10T01:30:00,sdl,4.90
2022-08-10T01:31:00,sdl,4.49
2022-08-10T01:32:00,sdl,4.47
2022-08-10T01:33:00,sdl,4.41
2022-08-10T01:34:00,sdl,4.47
2022-08-10T01:35:00,sdl,5.91
2022-08-10T01:36:00,sdl,5.96
2022-08-10T01:37:00,sdl,6.03
2022-08-10T01:38:00,sdl,6.10
2022-08-10T01:39:00,sdl,6.03
2022-08-10T01:40:00,sdl,6.13
2022-08-10T01:41:00,sdl,5.06
2022-08-10T01:42:00,sdl,4.20
2022-08-10T01:43:00,sdl,4.46
2022-08-10T01:44:00,sdl,4.13
2022-08-10T01:45:00,sdl,4.28
2022-08-10T01:46:00,sdl,4.28
2022-08-10T01:47:00,sdl,4.32
2022-08-10T01:48:00,sdl,4.30
2022-08-10T01:49:00,sdl,4.41
2022-08-10T01:50:00,sdl,4.38
2022-08-10T01:51:00,sdl,4.49
2022-08-10T01:52:00,sdl,5.85
2022-08-10T01:53:00,sdl,6.10
2022-08-10T01:54:00,sdl,6.17
2022-08-10T01:55:00,sdl,6.26
2022-08-10T01:56:00,sdl,6.25
2022-08-10T01:57:00,sdl,6.58
2022-08-10T01:58:00,sdl,4.40
2022-08-10T01:59:00,sdl,4.25
2022-08-10T02:00:00,sdl,4.27
2022-08-10T02:01:00,sdl,6.24
2022-08-10T02:02:00,sdl,8.77
2022-08-10T02:03:00,sdl,8.65
2022-08-10T02:04:00,sdl,8.82
2022-08-10T02:05:00,sdl,8.69
2022-08-10T02:06:00,sdl,14.15
2022-08-10T02:07:00,sdl,15.00
2022-08-10T02:08:00,sdl,14.98
2022-08-10T02:09:00,sdl,14.99
2022-08-10T02:10:00,sdl,14.98
2022-08-10T02:11:00,sdl,15.28
2022-08-10T02:12:00,sdl,10.28
2022-08-10T02:13:00,sdl,10.54
2022-08-10T02:14:00,sdl,10.05
2022-08-10T02:15:00,sdl,9.95
2022-08-10T02:16:00,sdl,9.92
2022-08-10T02:17:00,sdl,15.18
2022-08-10T02:18:00,sdl,15.29
2022-08-10T02:19:00,sdl,15.42
2022-08-10T02:20:00,sdl,15.45
2022-08-10T02:21:00,sdl,15.38
2022-08-10T02:22:00,sdl,9.82
2022-08-10T02:23:00,sdl,10.43
2022-08-10T02:24:00,sdl,10.81
2022-08-10T02:25:00,sdl,10.90
2022-08-10T02:26:00,sdl,15.78
2022-08-10T02:27:00,sdl,16.39
2022-08-10T02:28:00,sdl,18.61
2022-08-10T02:29:00,sdl,18.65
2022-08-10T02:30:00,sdl,12.26
2022-08-10T02:31:00,sdl,12.24
2022-08-10T02:32:00,sdl,12.28
2022-08-10T02:33:00,sdl,12.19
2022-08-10T02:34:00,sdl,12.20
2022-08-10T02:35:00,sdl,17.36
2022-08-10T02:36:00,sdl,17.93
2022-08-10T02:37:00,sdl,17.97
2022-08-10T02:38:00,sdl,11.98
2022-08-10T02:39:00,sdl,11.91
2022-08-10T02:40:00,sdl,12.85
2022-08-10T02:41:00,sdl,12.84
2022-08-10T02:42:00,sdl,17.98
2022-08-10T02:43:00,sdl,18.49
2022-08-10T02:44:00,sdl,12.95
2022-08-10T02:45:00,sdl,12.85
2022-08-10T02:46:00,sdl,12.88
2022-08-10T02:47:00,sdl,9.80
2022-08-10T02:48:00,sdl,9.58
2022-08-10T02:49:00,sdl,14.87
2022-08-10T02:50:00,sdl,15.19
2022-08-10T02:51:00,sdl,15.11
2022-08-10T02:52:00,sdl,15.48
2022-08-10T02:53:00,sdl,9.63
2022-08-10T02:54:00,sdl,9.65
2022-08-10T02:55:00,sdl,9.67
2022-08-10T02:56:00,sdl,9.68
2022-08-10T02:57:00,sdl,10.50
2022-08-10T02:58:00,sdl,15.94
2022-08-10T02:59:00,sdl,16.15
2022-08-10T03:00:00,sdl,16.11
2022-08-10T03:01:00,sdl,10.25
2022-08-10T03:02:00,sdl,10.15
2022-08-10T03:03:00,sdl,9.26
2022-08-10T03:04:00,sdl,9.22
2022-08-10T03:05:00,sdl,14.24
2022-08-10T03:06:00,sdl,15.34
2022-08-10T03:07:00,sdl,14.94
2022-08-10T03:08:00,sdl,14.64
2022-08-10T03:09:00,sdl,9.28
2022-08-10T03:10:00,sdl,9.32
2022-08-10T03:11:00,sdl,9.29
2022-08-10T03:12:00,sdl,9.26
2022-08-10T03:13:00,sdl,14.01
2022-08-10T03:14:00,sdl,15.97
2022-08-10T03:15:00,sdl,15.89
2022-08-10T03:16:00,sdl,10.38
2022-08-10T03:17:00,sdl,10.51
2022-08-10T03:18:00,sdl,10.54
2022-08-10T03:19:00,sdl,10.41
2022-08-10T03:20:00,sdl,9.83
2022-08-10T03:21:00,sdl,14.81
2022-08-10T03:22:00,sdl,9.28
2022-08-10T03:23:00,sdl,9.18
2022-08-10T03:24:00,sdl,9.22
2022-08-10T03:25:00,sdl,9.78
2022-08-10T03:26:00,sdl,14.63
2022-08-10T03:27:00,sdl,15.24
2022-08-10T03:28:00,sdl,15.19
2022-08-10T03:29:00,sdl,15.21
2022-08-10T03:30:00,sdl,15.27
2022-08-10T03:31:00,sdl,12.83
2022-08-10T03:32:00,sdl,12.87
2022-08-10T03:33:00,sdl,13.02
2022-08-10T03:34:00,sdl,13.52
2022-08-10T03:35:00,sdl,18.70
2022-08-10T03:36:00,sdl,19.17
2022-08-10T03:37:00,sdl,18.73
2022-08-10T03:38:00,sdl,12.45
2022-08-10T03:39:00,sdl,12.45
2022-08-10T03:40:00,sdl,12.33
2022-08-10T03:41:00,sdl,12.33
2022-08-10T03:42:00,sdl,17.17
2022-08-10T03:43:00,sdl,17.86
2022-08-10T03:44:00,sdl,12.37
2022-08-10T03:45:00,sdl,12.29
2022-08-10T03:46:00,sdl,10.09
2022-08-10T03:47:00,sdl,10.08
2022-08-10T03:48:00,sdl,10.93
2022-08-10T03:49:00,sdl,16.12
2022-08-10T03:50:00,sdl,16.34
2022-08-10T03:51:00,sdl,16.45
2022-08-10T03:52:00,sdl,10.95
2022-08-10T03:53:00,sdl,10.96
2022-08-10T03:54:00,sdl,11.02
2022-08-10T03:55:00,sdl,10.13
2022-08-10T03:56:00,sdl,14.72
2022-08-10T03:57:00,sdl,15.55
2022-08-10T03:58:00,sdl,15.65
2022-08-10T03:59:00,sdl,10.23
2022-08-10T04:00:00,sdl,10.64
2022-08-10T04:01:00,sdl,10.27
2022-08-10T04:02:00,sdl,10.48
2022-08-10T04:03:00,sdl,18.05
2022-08-10T04:04:00,sdl,18.16
2022-08-10T04:05:00,sdl,18.79
2022-08-10T04:06:00,sdl,18.81
2022-08-10T04:07:00,sdl,13.32
2022-08-10T04:08:00,sdl,13.43
2022-08-10T04:09:00,sdl,13.51
2022-08-10T04:10:00,sdl,13.43
2022-08-10T04:11:00,sdl,17.72
2022-08-10T04:12:00,sdl,17.89
2022-08-10T04:13:00,sdl,18.00
2022-08-10T04:14:00,sdl,11.08
2022-08-10T04:15:00,sdl,11.09
2022-08-10T04:16:00,sdl,11.09
2022-08-10T04:17:00,sdl,11.14
2022-08-10T04:18:00,sdl,15.78
2022-08-10T04:19:00,sdl,16.57
2022-08-10T04:20:00,sdl,11.23
2022-08-10T04:21:00,sdl,12.16
2022-08-10T04:22:00,sdl,11.20
2022-08-10T04:23:00,sdl,11.14
2022-08-10T04:24:00,sdl,15.76
2022-08-10T04:25:00,sdl,16.39
2022-08-10T04:26:00,sdl,16.55
2022-08-10T04:27:00,sdl,16.74
2022-08-10T04:28:00,sdl,10.34
2022-08-10T04:29:00,sdl,10.34
2022-08-10T04:30:00,sdl,10.22
2022-08-10T04:31:00,sdl,10.26
2022-08-10T04:32:00,sdl,10.33
2022-08-10T04:33:00,sdl,16.00
2022-08-10T04:34:00,sdl,16.10
2022-08-10T04:35:00,sdl,15.72
2022-08-10T04:36:00,sdl,15.75
2022-08-10T04:37:00,sdl,10.32
2022-08-10T04:38:00,sdl,11.10
2022-08-10T04:39:00,sdl,11.12
2022-08-10T04:40:00,sdl,11.13
2022-08-10T04:41:00,sdl,15.64
2022-08-10T04:42:00,sdl,16.57
2022-08-10T04:43:00,sdl,11.48
2022-08-10T04:44:00,sdl,11.21
2022-08-10T04:45:00,sdl,10.17
2022-08-10T04:46:00,sdl,10.18
2022-08-10T04:47:00,sdl,15.44
2022-08-10T04:48:00,sdl,15.63
2022-08-10T04:49:00,sdl,17.29
2022-08-10T04:50:00,sdl,12.16
2022-08-10T04:51:00,sdl,11.87
2022-08-10T04:52:00,sdl,11.93
2022-08-10T04:53:00,sdl,11.89
2022-08-10T04:54:00,sdl,17.12
2022-08-10T04:55:00,sdl,18.17
2022-08-10T04:56:00,sdl,12.58
2022-08-10T04:57:00,sdl,12.95
2022-08-10T04:58:00,sdl,12.63
2022-08-10T04:59:00,sdl,12.70
2022-08-10T05:00:00,sdl,12.64
2022-08-10T05:01:00,sdl,17.68
2022-08-10T05:02:00,sdl,17.19
2022-08-10T05:03:00,sdl,17.23
2022-08-10T05:04:00,sdl,12.21
2022-08-10T05:05:00,sdl,12.68
2022-08-10T05:06:00,sdl,12.74
2022-08-10T05:07:00,sdl,10.16
2022-08-10T05:08:00,sdl,10.06
2022-08-10T05:09:00,sdl,15.45
2022-08-10T05:10:00,sdl,15.62
2022-08-10T05:11:00,sdl,15.97
2022-08-10T05:12:00,sdl,16.62
2022-08-10T05:13:00,sdl,10.93
2022-08-10T05:14:00,sdl,10.95
2022-08-10T05:15:00,sdl,10.99
2022-08-10T05:16:00,sdl,11.08
2022-08-10T05:17:00,sdl,16.21
2022-08-10T05:18:00,sdl,15.69
2022-08-10T05:19:00,sdl,10.21
2022-08-10T05:20:00,sdl,10.22
2022-08-10T05:21:00,sdl,10.20
2022-08-10T05:22:00,sdl,10.06
2022-08-10T05:23:00,sdl,15.41
2022-08-10T05:24:00,sdl,15.50
2022-08-10T05:25:00,sdl,15.42
2022-08-10T05:26:00,sdl,10.14
2022-08-10T05:27:00,sdl,10.24
2022-08-10T05:28:00,sdl,10.74
2022-08-10T05:29:00,sdl,11.04
2022-08-10T05:30:00,sdl,15.48
2022-08-10T05:31:00,sdl,16.28
2022-08-10T05:32:00,sdl,18.78
2022-08-10T05:33:00,sdl,13.33
2022-08-10T05:34:00,sdl,13.32
2022-08-10T05:35:00,sdl,12.32
2022-08-10T05:36:00,sdl,12.30
2022-08-10T05:37:00,sdl,12.67
2022-08-10T05:38:00,sdl,18.18
2022-08-10T05:39:00,sdl,18.22
2022-08-10T05:40:00,sdl,17.92
2022-08-10T05:41:00,sdl,18.05
2022-08-10T05:42:00,sdl,10.36
2022-08-10T05:43:00,sdl,10.36
2022-08-10T05:44:00,sdl,10.42
2022-08-10T05:45:00,sdl,10.33
2022-08-10T05:46:00,sdl,15.95
2022-08-10T05:47:00,sdl,16.66
2022-08-10T05:48:00,sdl,11.34
2022-08-10T05:49:00,sdl,11.26
2022-08-10T05:50:00,sdl,11.32
2022-08-10T05:51:00,sdl,11.34
2022-08-10T05:52:00,sdl,10.76
2022-08-10T05:53:00,sdl,15.69
2022-08-10T05:54:00,sdl,10.47
2022-08-10T05:55:00,sdl,10.41
2022-08-10T05:56:00,sdl,10.39
2022-08-10T05:57:00,sdl,10.46
2022-08-10T05:58:00,sdl,10.16
2022-08-10T05:59:00,sdl,15.29
2022-08-10T06:00:00,sdl,15.60
2022-08-10T06:01:00,sdl,15.70
2022-08-10T06:02:00,sdl,15.67
2022-08-10T06:03:00,sdl,11.02
2022-08-10T06:04:00,sdl,10.91
2022-08-10T06:05:00,sdl,13.19
2022-08-10T06:06:00,sdl,13.52
2022-08-10T06:07:00,sdl,17.53
2022-08-10T06:08:00,sdl,18.44
2022-08-10T06:09:00,sdl,12.55
2022-08-10T06:10:00,sdl,12.61
2022-08-10T06:11:00,sdl,12.18
2022-08-10T06:12:00,sdl,12.32
2022-08-10T06:13:00,sdl,12.31
2022-08-10T06:14:00,sdl,17.34
2022-08-10T06:15:00,sdl,17.64
2022-08-10T06:16:00,sdl,17.64
2022-08-10T06:17:00,sdl,12.35
2022-08-10T06:18:00,sdl,12.27
2022-08-10T06:19:00,sdl,12.61
2022-08-10T06:20:00,sdl,12.83
2022-08-10T06:21:00,sdl,17.69
2022-08-10T06:22:00,sdl,20.18
2022-08-10T06:23:00,sdl,12.88
2022-08-10T06:24:00,sdl,13.03
2022-08-10T06:25:00,sdl,13.25
2022-08-10T06:26:00,sdl,12.44
2022-08-10T06:27:00,sdl,12.44
2022-08-10T06:28:00,sdl,17.73
2022-08-10T06:29:00,sdl,17.93
2022-08-10T06:30:00,sdl,17.99
2022-08-10T06:31:00,sdl,17.98
2022-08-10T06:32:00,sdl,12.38
2022-08-10T06:33:00,sdl,15.23
2022-08-10T06:34:00,sdl,15.31
2022-08-10T06:35:00,sdl,15.53
2022-08-10T06:36:00,sdl,21.11
2022-08-10T06:37:00,sdl,22.33
2022-08-10T06:38:00,sdl,16.33
2022-08-10T06:39:00,sdl,16.43
2022-08-10T06:40:00,sdl,16.57
2022-08-10T06:41:00,sdl,16.53
2022-08-10T06:42:00,sdl,21.88
2022-08-10T06:43:00,sdl,21.11
2022-08-10T06:44:00,sdl,15.65
2022-08-10T06:45:00,sdl,15.71
2022-08-10T06:46:00,sdl,15.80
2022-08-10T06:47:00,sdl,15.79
2022-08-10T06:48:00,sdl,21.10
2022-08-10T06:49:00,sdl,15.85
2022-08-10T06:50:00,sdl,15.72
2022-08-10T06:51:00,sdl,17.87
2022-08-10T06:52:00,sdl,17.86
2022-08-10T06:53:00,sdl,17.72
2022-08-10T06:54:00,sdl,23.93
2022-08-10T06:55:00,sdl,18.77
2022-08-10T06:56:00,sdl,18.81
2022-08-10T06:57:00,sdl,18.94
2022-08-10T06:58:00,sdl,18.85
2022-08-10T06:59:00,sdl,21.16
2022-08-10T07:00:00,sdl,23.19
2022-08-10T07:01:00,sdl,15.80
2022-08-10T07:02:00,sdl,16.14
2022-08-10T07:03:00,sdl,16.17
2022-08-10T07:04:00,sdl,16.12
2022-08-10T07:05:00,sdl,16.07
2022-08-10T07:06:00,sdl,20.67
2022-08-10T07:07:00,sdl,21.08
2022-08-10T07:08:00,sdl,21.22
2022-08-10T07:09:00,sdl,15.72
2022-08-10T07:10:00,sdl,15.67
2022-08-10T07:11:00,sdl,15.69
2022-08-10T07:12:00,sdl,16.60
2022-08-10T07:13:00,sdl,16.66
2022-08-10T07:14:00,sdl,22.37
2022-08-10T07:15:00,sdl,22.31
2022-08-10T07:16:00,sdl,16.66
2022-08-10T07:17:00,sdl,16.70
2022-08-10T07:18:00,sdl,16.60
2022-08-10T07:19:00,sdl,15.73
2022-08-10T07:20:00,sdl,20.97
2022-08-10T07:21:00,sdl,21.27
2022-08-10T07:22:00,sdl,21.28
2022-08-10T07:23:00,sdl,15.85
2022-08-10T07:24:00,sdl,15.95
2022-08-10T07:25:00,sdl,18.03
2022-08-10T07:26:00,sdl,19.59
2022-08-10T07:27:00,sdl,23.28
2022-08-10T07:28:00,sdl,23.72
2022-08-10T07:29:00,sdl,18.76
2022-08-10T07:30:00,sdl,22.84
2022-08-10T07:31:00,sdl,18.86
2022-08-10T07:32:00,sdl,18.83
2022-08-10T07:33:00,sdl,23.88
2022-08-10T07:34:00,sdl,24.21
2022-08-10T07:35:00,sdl,23.36
2022-08-10T07:36:00,sdl,17.83
2022-08-10T07:37:00,sdl,17.93
2022-08-10T07:38:00,sdl,17.93
2022-08-10T07:39:00,sdl,18.03
2022-08-10T07:40:00,sdl,18.46
2022-08-10T07:41:00,sdl,24.79
2022-08-10T07:42:00,sdl,19.14
2022-08-10T07:43:00,sdl,16.79
2022-08-10T07:44:00,sdl,16.92
2022-08-10T07:45:00,sdl,18.34
2022-08-10T07:46:00,sdl,20.14
2022-08-10T07:47:00,sdl,22.74
2022-08-10T07:48:00,sdl,22.96
2022-08-10T07:49:00,sdl,17.50
2022-08-10T07:50:00,sdl,17.56
2022-08-10T07:51:00,sdl,17.59
2022-08-10T07:52:00,sdl,17.60
2022-08-10T07:53:00,sdl,22.14
2022-08-10T07:54:00,sdl,22.47
2022-08-10T07:55:00,sdl,16.89
2022-08-10T07:56:00,sdl,16.98
2022-08-10T07:57:00,sdl,13.88
2022-08-10T07:58:00,sdl,13.86
2022-08-10T07:59:00,sdl,19.01
2022-08-10T08:00:00,sdl,19.26
2022-08-10T08:01:00,sdl,19.28
2022-08-10T08:02:00,sdl,14.01
2022-08-10T08:03:00,sdl,14.84
2022-08-10T08:04:00,sdl,14.67
2022-08-10T08:05:00,sdl,15.16
2022-08-10T08:06:00,sdl,16.91
2022-08-10T08:07:00,sdl,22.31
2022-08-10T08:08:00,sdl,17.31
2022-08-10T08:09:00,sdl,17.62
2022-08-10T08:10:00,sdl,16.25
2022-08-10T08:11:00,sdl,15.86
2022-08-10T08:12:00,sdl,16.06
2022-08-10T08:13:00,sdl,21.16
2022-08-10T08:14:00,sdl,21.54
2022-08-10T08:15:00,sdl,16.25
2022-08-10T08:16:00,sdl,16.17
2022-08-10T08:17:00,sdl,13.90
2022-08-10T08:18:00,sdl,13.94
2022-08-10T08:19:00,sdl,13.93
2022-08-10T08:20:00,sdl,20.15
2022-08-10T08:21:00,sdl,14.94
2022-08-10T08:22:00,sdl,14.93
2022-08-10T08:23:00,sdl,15.40
2022-08-10T08:24:00,sdl,14.95
2022-08-10T08:25:00,sdl,14.92
2022-08-10T08:26:00,sdl,20.05
2022-08-10T08:27:00,sdl,19.59
2022-08-10T08:28:00,sdl,14.01
2022-08-10T08:29:00,sdl,13.84
2022-08-10T08:30:00,sdl,13.84
2022-08-10T08:31:00,sdl,13.88
2022-08-10T08:32:00,sdl,18.40
2022-08-10T08:33:00,sdl,19.43
2022-08-10T08:34:00,sdl,14.14
2022-08-10T08:35:00,sdl,14.50
2022-08-10T08:36:00,sdl,15.44
2022-08-10T08:37:00,sdl,15.28
2022-08-10T08:38:00,sdl,15.32
2022-08-10T08:39:00,sdl,20.65
2022-08-10T08:40:00,sdl,20.91
2022-08-10T08:41:00,sdl,17.40
2022-08-10T08:42:00,sdl,17.51
2022-08-10T08:43:00,sdl,17.46
2022-08-10T08:44:00,sdl,16.62
2022-08-10T08:45:00,sdl,21.29
2022-08-10T08:46:00,sdl,22.15
2022-08-10T08:47:00,sdl,16.56
2022-08-10T08:48:00,sdl,16.60
2022-08-10T08:49:00,sdl,16.55
2022-08-10T08:50:00,sdl,16.48
2022-08-10T08:51:00,sdl,16.46
2022-08-10T08:52:00,sdl,21.75
2022-08-10T08:53:00,sdl,21.97
2022-08-10T08:54:00,sdl,18.44
2022-08-10T08:55:00,sdl,18.53
2022-08-10T08:56:00,sdl,17.82
2022-08-10T08:57:00,sdl,17.82
2022-08-10T08:58:00,sdl,22.67
2022-08-10T08:59:00,sdl,25.51
2022-08-10T09:00:00,sdl,20.34
2022-08-10T09:01:00,sdl,16.71
2022-08-10T09:02:00,sdl,14.55
2022-08-10T09:03:00,sdl,13.99
2022-08-10T09:04:00,sdl,18.82
2022-08-10T09:05:00,sdl,21.55
2022-08-10T09:06:00,sdl,23.79
2022-08-10T09:07:00,sdl,18.43
2022-08-10T09:08:00,sdl,15.92
2022-08-10T09:09:00,sdl,15.69
2022-08-10T09:10:00,sdl,16.70
2022-08-10T09:11:00,sdl,22.42
2022-08-10T09:12:00,sdl,19.47
2022-08-10T09:13:00,sdl,19.67
2022-08-10T09:14:00,sdl,16.94
2022-08-10T09:15:00,sdl,17.03
2022-08-10T09:16:00,sdl,16.98
2022-08-10T09:17:00,sdl,22.59
2022-08-10T09:18:00,sdl,17.29
2022-08-10T09:19:00,sdl,18.77
2022-08-10T09:20:00,sdl,15.31
2022-08-10T09:21:00,sdl,13.59
2022-08-10T09:22:00,sdl,13.51
2022-08-10T09:23:00,sdl,18.95
2022-08-10T09:24:00,sdl,12.48
2022-08-10T09:25:00,sdl,12.50
2022-08-10T09:26:00,sdl,12.47
2022-08-10T09:27:00,sdl,12.60
2022-08-10T09:28:00,sdl,17.79
2022-08-10T09:29:00,sdl,18.06
2022-08-10T09:30:00,sdl,19.18
2022-08-10T09:31:00,sdl,13.45
2022-08-10T09:32:00,sdl,13.55
2022-08-10T09:33:00,sdl,13.61
2022-08-10T09:34:00,sdl,13.63
2022-08-10T09:35:00,sdl,15.75
2022-08-10T09:36:00,sdl,21.34
2022-08-10T09:37:00,sdl,21.52
2022-08-10T09:38:00,sdl,15.49
2022-08-10T09:39:00,sdl,15.17
2022-08-10T09:40:00,sdl,15.47
2022-08-10T09:41:00,sdl,15.54
2022-08-10T09:42:00,sdl,20.88
2022-08-10T09:43:00,sdl,20.17
2022-08-10T09:44:00,sdl,20.24
2022-08-10T09:45:00,sdl,14.93
2022-08-10T09:46:00,sdl,12.37
2022-08-10T09:47:00,sdl,12.41
2022-08-10T09:48:00,sdl,12.38
2022-08-10T09:49:00,sdl,18.70
2022-08-10T09:50:00,sdl,19.04
2022-08-10T09:51:00,sdl,13.48
2022-08-10T09:52:00,sdl,13.55
2022-08-10T09:53:00,sdl,13.47
2022-08-10T09:54:00,sdl,13.60
2022-08-10T09:55:00,sdl,13.55
2022-08-10T09:56:00,sdl,18.82
2022-08-10T09:57:00,sdl,19.30
2022-08-10T09:58:00,sdl,13.87
2022-08-10T09:59:00,sdl,13.98
2022-08-10T10:00:00,sdl,13.52
2022-08-10T10:01:00,sdl,15.32
2022-08-10T10:02:00,sdl,15.92
2022-08-10T10:03:00,sdl,21.41
2022-08-10T10:04:00,sdl,16.24
2022-08-10T10:05:00,sdl,18.17
2022-08-10T10:06:00,sdl,18.04
2022-08-10T10:07:00,sdl,18.58
2022-08-10T10:08:00,sdl,23.43
2022-08-10T10:09:00,sdl,24.36
2022-08-10T10:10:00,sdl,20.12
2022-08-10T10:11:00,sdl,20.12
2022-08-10T10:12:00,sdl,20.02
2022-08-10T10:13:00,sdl,19.87
2022-08-10T10:14:00,sdl,24.43
2022-08-10T10:15:00,sdl,24.76
2022-08-10T10:16:00,sdl,19.76
2022-08-10T10:17:00,sdl,19.83
2022-08-10T10:18:00,sdl,19.88
2022-08-10T10:19:00,sdl,19.89
2022-08-10T10:20:00,sdl,24.67
2022-08-10T10:21:00,sdl,24.75
2022-08-10T10:22:00,sdl,17.57
2022-08-10T10:23:00,sdl,17.59
2022-08-10T10:24:00,sdl,17.61
2022-08-10T10:25:00,sdl,17.70
2022-08-10T10:26:00,sdl,13.78
2022-08-10T10:27:00,sdl,19.18
2022-08-10T10:28:00,sdl,19.47
2022-08-10T10:29:00,sdl,13.82
2022-08-10T10:30:00,sdl,13.53
2022-08-10T10:31:00,sdl,13.63
2022-08-10T10:32:00,sdl,14.62
2022-08-10T10:33:00,sdl,14.38
2022-08-10T10:34:00,sdl,19.78
2022-08-10T10:35:00,sdl,19.66
2022-08-10T10:36:00,sdl,20.07
2022-08-10T10:37:00,sdl,14.64
2022-08-10T10:38:00,sdl,14.62
2022-08-10T10:39:00,sdl,14.22
2022-08-10T10:40:00,sdl,14.27
2022-08-10T10:41:00,sdl,14.25
2022-08-10T10:42:00,sdl,19.23
2022-08-10T10:43:00,sdl,13.99
2022-08-10T10:44:00,sdl,14.51
2022-08-10T10:45:00,sdl,13.84
2022-08-10T10:46:00,sdl,13.84
2022-08-10T10:47:00,sdl,12.84
2022-08-10T10:48:00,sdl,18.13
2022-08-10T10:49:00,sdl,18.24
2022-08-10T10:50:00,sdl,12.97
2022-08-10T10:51:00,sdl,12.88
2022-08-10T10:52:00,sdl,14.74
2022-08-10T10:53:00,sdl,16.14
2022-08-10T10:54:00,sdl,20.73
2022-08-10T10:55:00,sdl,21.81
2022-08-10T10:56:00,sdl,16.33
2022-08-10T10:57:00,sdl,16.84
2022-08-10T10:58:00,sdl,16.78
2022-08-10T10:59:00,sdl,16.78
2022-08-10T11:00:00,sdl,16.69
2022-08-10T11:01:00,sdl,25.18
2022-08-10T11:02:00,sdl,24.71
2022-08-10T11:03:00,sdl,24.77
2022-08-10T11:04:00,sdl,20.16
2022-08-10T11:05:00,sdl,19.96
2022-08-10T11:06:00,sdl,19.81
2022-08-10T11:07:00,sdl,20.58
2022-08-10T11:08:00,sdl,25.03
2022-08-10T11:09:00,sdl,19.91
2022-08-10T11:10:00,sdl,18.91
2022-08-10T11:11:00,sdl,19.24
2022-08-10T11:12:00,sdl,19.32
2022-08-10T11:13:00,sdl,19.21
2022-08-10T11:14:00,sdl,24.32
2022-08-10T11:15:00,sdl,18.10
2022-08-10T11:16:00,sdl,18.00
2022-08-10T11:17:00,sdl,18.12
2022-08-10T11:18:00,sdl,18.02
2022-08-10T11:19:00,sdl,22.96
2022-08-10T11:20:00,sdl,23.68
2022-08-10T11:21:00,sdl,18.02
2022-08-10T11:22:00,sdl,18.17
2022-08-10T11:23:00,sdl,18.18
2022-08-10T11:24:00,sdl,15.05
2022-08-10T11:25:00,sdl,20.43
2022-08-10T11:26:00,sdl,20.42
2022-08-10T11:27:00,sdl,20.40
2022-08-10T11:28:00,sdl,14.81
2022-08-10T11:29:00,sdl,14.93
2022-08-10T11:30:00,sdl,15.27
2022-08-10T11:31:00,sdl,15.23
2022-08-10T11:32:00,sdl,19.22
2022-08-10T11:33:00,sdl,19.45
2022-08-10T11:34:00,sdl,19.64
2022-08-10T11:35:00,sdl,13.71
2022-08-10T11:36:00,sdl,13.71
2022-08-10T11:37:00,sdl,15.94
2022-08-10T11:38:00,sdl,16.87
2022-08-10T11:39:00,sdl,22.02
2022-08-10T11:40:00,sdl,22.23
2022-08-10T11:41:00,sdl,22.28
2022-08-10T11:42:00,sdl,16.80
2022-08-10T11:43:00,sdl,16.84
2022-08-10T11:44:00,sdl,16.85
2022-08-10T11:45:00,sdl,16.60
2022-08-10T11:46:00,sdl,21.85
2022-08-10T11:47:00,sdl,22.18
2022-08-10T11:48:00,sdl,14.51
2022-08-10T11:49:00,sdl,14.49
2022-08-10T11:50:00,sdl,14.57
2022-08-10T11:51:00,sdl,14.32
2022-08-10T11:52:00,sdl,19.13
2022-08-10T11:53:00,sdl,19.91
2022-08-10T11:54:00,sdl,20.05
2022-08-10T11:55:00,sdl,13.36
2022-08-10T11:56:00,sdl,13.28
2022-08-10T11:57:00,sdl,14.85
2022-08-10T11:58:00,sdl,16.46
2022-08-10T11:59:00,sdl,21.12
2022-08-10T12:00:00,sdl,21.65
2022-08-10T12:01:00,sdl,17.71
2022-08-10T12:02:00,sdl,17.02
2022-08-10T12:03:00,sdl,18.99
2022-08-10T12:04:00,sdl,20.16
2022-08-10T12:05:00,sdl,25.09
2022-08-10T12:06:00,sdl,25.30
2022-08-10T12:07:00,sdl,19.89
2022-08-10T12:08:00,sdl,19.94
2022-08-10T12:09:00,sdl,20.01
2022-08-10T12:10:00,sdl,19.99
2022-08-10T12:11:00,sdl,20.86
2022-08-10T12:12:00,sdl,25.76
2022-08-10T12:13:00,sdl,19.88
2022-08-10T12:14:00,sdl,19.83
2022-08-10T12:15:00,sdl,19.85
2022-08-10T12:16:00,sdl,19.76
2022-08-10T12:17:00,sdl,24.92
2022-08-10T12:18:00,sdl,25.13
2022-08-10T12:19:00,sdl,25.14
2022-08-10T12:20:00,sdl,20.39
2022-08-10T12:21:00,sdl,20.69
2022-08-10T12:22:00,sdl,20.91
2022-08-10T12:23:00,sdl,18.79
2022-08-10T12:24:00,sdl,15.61
2022-08-10T12:25:00,sdl,20.96
2022-08-10T12:26:00,sdl,15.93
2022-08-10T12:27:00,sdl,15.86
2022-08-10T12:28:00,sdl,14.60
2022-08-10T12:29:00,sdl,14.55
2022-08-10T12:30:00,sdl,19.19
2022-08-10T12:31:00,sdl,19.69
2022-08-10T12:32:00,sdl,14.43
2022-08-10T12:33:00,sdl,14.35
2022-08-10T12:34:00,sdl,14.38
2022-08-10T12:35:00,sdl,14.35
2022-08-10T12:36:00,sdl,14.81
2022-08-10T12:37:00,sdl,20.26
2022-08-10T12:38:00,sdl,20.55
2022-08-10T12:39:00,sdl,20.64
2022-08-10T12:40:00,sdl,20.70
2022-08-10T12:41:00,sdl,15.24
2022-08-10T12:42:00,sdl,15.29
2022-08-10T12:43:00,sdl,15.64
2022-08-10T12:44:00,sdl,15.31
2022-08-10T12:45:00,sdl,13.32
2022-08-10T12:46:00,sdl,19.27
2022-08-10T12:47:00,sdl,18.69
2022-08-10T12:48:00,sdl,12.95
2022-08-10T12:49:00,sdl,13.89
2022-08-10T12:50:00,sdl,13.92
2022-08-10T12:51:00,sdl,13.90
2022-08-10T12:52:00,sdl,21.95
2022-08-10T12:53:00,sdl,22.24
2022-08-10T12:54:00,sdl,17.91
2022-08-10T12:55:00,sdl,17.88
2022-08-10T12:56:00,sdl,18.88
2022-08-10T12:57:00,sdl,18.51
2022-08-10T12:58:00,sdl,23.35
2022-08-10T12:59:00,sdl,24.20
2022-08-10T13:00:00,sdl,19.05
2022-08-10T13:01:00,sdl,21.57
2022-08-10T13:02:00,sdl,20.62
2022-08-10T13:03:00,sdl,20.23
2022-08-10T13:04:00,sdl,25.36
2022-08-10T13:05:00,sdl,20.15
2022-08-10T13:06:00,sdl,20.35
2022-08-10T13:07:00,sdl,19.84
2022-08-10T13:08:00,sdl,20.07
2022-08-10T13:09:00,sdl,20.10
2022-08-10T13:10:00,sdl,25.74
2022-08-10T13:11:00,sdl,25.52
2022-08-10T13:12:00,sdl,16.75
2022-08-10T13:13:00,sdl,16.72
2022-08-10T13:14:00,sdl,13.01
2022-08-10T13:15:00,sdl,11.54
2022-08-10T13:16:00,sdl,11.52
2022-08-10T13:17:00,sdl,11.53
2022-08-10T13:18:00,sdl,11.56
2022-08-10T13:19:00,sdl,9.46
2022-08-10T13:20:00,sdl,9.32
2022-08-10T13:21:00,sdl,9.31
2022-08-10T13:22:00,sdl,9.29
2022-08-10T13:23:00,sdl,9.25